Regional Weather Roundup
Issued by NWS

Home | Current Version | Previous Version | Text Only | Print | Product List | Glossary Off
Versions: 1 2 3 4 5 6 7 8 9 10 11 12 13 14 15 16 17 18 19 20 21 22 23 24 25 26 27 28 29 30 31 32 33 34 35 36 37 38 39 40 41 42 43 44 45 46 47 48 49 50

093
ASUS43 KFSD 252202
RWRSD

WEATHER ROUNDUP FOR SOUTH DAKOTA
NATIONAL WEATHER SERVICE SIOUX FALLS SD
500 PM CDT SUN JUN 25 2017

NOTE: "FAIR" INDICATES FEW OR NO CLOUDS BELOW 12,000 FEET WITH NO
SIGNIFICANT WEATHER AND/OR OBSTRUCTIONS TO VISIBILITY.


SDZ001>005-009-010-012>017-252300-
NORTHWEST AND NORTH CENTRAL SOUTH DAKOTA

CITY           SKY/WX    TMP DP  RH WIND       PRES   REMARKS
BUFFALO          N/A     77  28  16 N21       30.15F
FAITH            N/A     76  31  19 NW13      30.19F
MOBRIDGE       MOSUNNY   76  34  21 NE8       30.18F
$$

SDZ012>016-024>037-041>051-057-063-072>074-252300-
SOUTHWEST AND SOUTH CENTRAL SOUTH DAKOTA

CITY           SKY/WX    TMP DP  RH WIND       PRES   REMARKS
RAPID CTY ARPT MOSUNNY   77  34  21 NW6       30.21F
PIERRE         MOSUNNY   77  35  21 CALM      30.16F
CUSTER         MOSUNNY   71  32  23 NW9G20    30.32F
ELLSWORTH AFB  MOSUNNY   78  37  22 N6        30.21F
PHILIP         MOSUNNY   80  33  18 VRB5      30.17F
PINE RIDGE     MOSUNNY   79  40  24 VRB5      30.22F
SPEARFISH      FAIR      73  36  25 NW7G15    30.26S
WINNER         MOCLDY    84  34  16 NW16      30.20F
$$

SDZ004>011-016>023-039-040-252300-
NORTHEAST SOUTH DAKOTA

CITY           SKY/WX    TMP DP  RH WIND       PRES   REMARKS
ABERDEEN       LGT RAIN  57  49  74 SE6       30.21F
WATERTOWN      LGT RAIN  59  48  67 N15       30.24F
BROOKINGS      MOSUNNY   68  44  42 NW14      30.23F
SISSETON         N/A     69  45  41 W16       30.18F
$$

SDZ017-020-022-023-036>040-048>070-252300-
SOUTHEAST SOUTH DAKOTA

CITY           SKY/WX    TMP DP  RH WIND       PRES   REMARKS
SIOUX FALLS    MOSUNNY   71  47  42 N13       30.22F
HURON          MOSUNNY   73  42  32 CALM      30.20F
CHAMBERLAIN    SUNNY     78  38  23 SW3       30.19F
MITCHELL       SUNNY     74  39  28 VRB3      30.22F
YANKTON        SUNNY     73  42  32 N8        30.24F
$$

ABBREVIATIONS USED IN REMARKS
   TC - TEMPERATURE IN CELSIUS
  WCI - WIND CHILL INDEX
   HX - HEAT INDEX
  VSB - VISIBILITY





USA.gov is the U.S. government's official web portal to all federal, state and local government web resources and services.